Batesville, AR

5:51 PM CST on November 14, 2019 (GMT -0600)
Batesville Regional

Weather History for KBVX - September, 2019

Change the Weather History Date:

Tuesday, September 17, 2019

  Actual Average Record
Temperature  
Mean Temperature 81 °F -  
Max Temperature 97 °F 83 °F 98 °F (1953)
Min Temperature 66 °F 61 °F 39 °F (1961)
Cooling Degree Days 16    
Growing Degree Days 31 (Base 50)    
Moisture  
Dew Point 66 °F    
Average Humidity 74    
Maximum Humidity 97    
Minimum Humidity 36    
Precipitation  
Precipitation 0.00 in - - ()
Sea Level Pressure  
Sea Level Pressure 30.02 in    
Wind  
Wind Speed 3 mph ()    
Max Wind Speed 8 mph    
Max Gust Speed -    
Visibility 7.9 miles    
Events      
Averages and records for this station are not official NWS values.
T = Trace of Precipitation, MM = Missing Value Source: Averaged Metar Reports

Daily Weather History Graph

Daily Weather History Graph

Search for Another Location

Airport or City:

Astronomy

Sep. 17, 2019 Rise Set
Actual Time 6:50 AM CDT 7:11 PM CDT
Civil Twilight 6:25 AM CDT 7:36 PM CDT
Nautical Twilight 5:55 AM CDT 8:06 PM CDT
Astronomical Twilight 5:24 AM CDT 8:36 PM CDT
Moon 9:20 PM CDT (9/17) 9:50 AM CDT (9/17)
Length of Visible Light 13h 11m
Length of Day
12h 20m
Waning Gibbous, 89% of the Moon is Illuminated
Sep 17
Waning Gibbous
Sep 21
Last Quarter
Sep 28
New
Oct 5
First Quarter
Oct 13
Full

Hourly Weather History & Observations

Time (CDT) Temp. Heat Index Dew Point Humidity Pressure Visibility Wind Dir Wind Speed Gust Speed Precip Events Conditions
12:56 AM 70.0 °F - 66.9 °F 90% 30.03 in 6.0 mi NNW 3.5 mph - N/A   Clear
1:56 AM 70.0 °F - 66.9 °F 90% 30.04 in 10.0 mi Calm Calm - N/A   Clear
2:37 AM 69.8 °F - 66.2 °F 88% 30.04 in 1.2 mi NNW 4.6 mph - N/A   Clear
2:44 AM 69.8 °F - 66.2 °F 88% 30.04 in 0.8 mi NW 3.5 mph - N/A   Clear
2:47 AM 69.8 °F - 66.2 °F 88% 30.04 in 1.5 mi WNW 3.5 mph - N/A   Clear
2:54 AM 69.8 °F - 66.2 °F 88% 30.04 in 8.0 mi Calm Calm - N/A   Clear
2:56 AM 69.1 °F - 66.9 °F 93% 30.03 in 8.0 mi Calm Calm - N/A   Clear
3:56 AM 68.0 °F - 66.0 °F 93% 30.03 in 9.0 mi WNW 4.6 mph - N/A   Clear
4:56 AM 66.9 °F - 66.0 °F 97% 30.03 in 7.0 mi WNW 3.5 mph - N/A   Clear
5:56 AM 66.9 °F - 66.0 °F 97% 30.05 in 5.0 mi NW 4.6 mph - N/A   Clear
6:56 AM 66.9 °F - 66.0 °F 97% 30.06 in 7.0 mi WNW 4.6 mph - N/A   Clear
7:56 AM 69.1 °F - 66.0 °F 90% 30.08 in 8.0 mi Calm Calm - N/A   Clear
8:56 AM 73.9 °F - 68.0 °F 82% - - North - - N/A   Unknown
9:56 AM - - - N/A% - - North - - N/A   Unknown
10:56 AM - - - N/A% - - North - - N/A   Unknown
11:56 AM - - - N/A% - - North - - N/A   Unknown
12:56 PM 93.0 °F 96.4 °F 66.9 °F 42% 30.06 in 10.0 mi SSW 5.8 mph - N/A   Clear
1:56 PM 95.0 °F 97.4 °F 64.9 °F 37% 30.03 in 10.0 mi East 8.1 mph - N/A   Partly Cloudy
2:56 PM 96.1 °F 98.8 °F 64.9 °F 36% 30.00 in 10.0 mi East 6.9 mph - N/A   Mostly Cloudy
3:56 PM 96.1 °F 99.3 °F 66.0 °F 37% 29.99 in 10.0 mi South 5.8 mph - N/A   Partly Cloudy
4:56 PM 95.0 °F 97.0 °F 64.0 °F 36% 29.97 in 10.0 mi SE 6.9 mph - N/A   Clear
6:56 PM 90.0 °F 91.7 °F 64.9 °F 43% 29.96 in 10.0 mi ESE 5.8 mph - N/A   Clear
7:56 PM 86.0 °F 88.2 °F 66.0 °F 51% 29.97 in 10.0 mi ESE 4.6 mph - N/A   Clear
8:56 PM 78.1 °F - 66.9 °F 68% 29.99 in 10.0 mi Calm Calm - N/A   Clear
9:56 PM 77.0 °F - 66.9 °F 71% 30.01 in 10.0 mi Calm Calm - N/A   Clear
10:56 PM 73.0 °F - 66.9 °F 81% 30.01 in 10.0 mi Calm Calm - N/A   Clear
11:56 PM 72.0 °F - 68.0 °F 87% 30.01 in 10.0 mi Calm Calm - N/A   Clear